Regional Weather Roundup
Issued by NWS Cleveland, OH

Home | Current Version | Previous Version | Graphics & Text | Print | Product List | Glossary On
Versions: 1 2 3 4 5 6 7 8 9 10 11 12 13 14 15 16 17 18 19 20 21 22 23 24 25 26 27 28 29 30 31 32 33 34 35 36 37 38 39 40 41 42 43 44 45 46 47 48 49 50
000
ASUS41 KCLE 201102
RWRCLE
OHIO REGIONAL WEATHER ROUNDUP
NATIONAL WEATHER SERVICE CLEVELAND, OH
700 AM EDT WED AUG 20 2014

NOTE: "FAIR" INDICATES FEW OR NO CLOUDS BELOW 12,000 FEET WITH NO
SIGNIFICANT WEATHER AND/OR OBSTRUCTIONS TO VISIBILITY.

OHZ001>008-015>018-024>027-034-035-043-044-201200-
   NORTHWEST OHIO

CITY           SKY/WX    TMP DP  RH WIND       PRES   REMARKS
DEFIANCE       CLEAR     66  63  90 SW3       29.84R FOG
FINDLAY        PTCLDY    67  64  90 SW6       29.84R
TOLEDO EXPRESS PTCLDY    67  65  93 SW7       29.82R
TOLEDO EXEC    PTCLDY    66  63  90 SW5       29.83R
LIMA           PTCLDY    69  65  86 SW8       29.86R
$$

OHZ009>014-019>023-028>033-038-089-201200-
   NORTHEAST OHIO

CITY           SKY/WX    TMP DP  RH WIND       PRES   REMARKS
CLE-HOPKINS    LGT RAIN  67  65  93 SE8       29.88R
CLE-LAKEFRONT  LGT RAIN  68  65  90 S13       29.85S
CUY CO. ARPT   LGT RAIN  68  66  94 S9        29.87
LORAIN-ELYRIA  CLOUDY    69  65  86 SE5       29.87R
ASHTABULA      CLOUDY    65  63  93 S6        29.89R
AKRON-CANTON   TSTM      67  63  87 SW6       29.92R FOG
WOOSTER        CLOUDY    65  63  93 SE5       29.90R
MANSFIELD      CLOUDY    66  65  96 S7        29.88R
YOUNGSTOWN     LGT RAIN  65  63  93 S7        29.90R FOG
$$

OHZ042-051>053-060>062-070>072-077>081-201200-
  SOUTHWEST OHIO

CITY           SKY/WX    TMP DP  RH WIND       PRES   REMARKS
CINC-COVINGTON MOCLDY    66  64  93 CALM      29.91R
CINC-LUNKEN    PTCLDY    65  65 100 CALM      29.91R FOG
HAMILTON       PTCLDY    64  63  96 CALM      29.91R FOG
DAYTON         MOCLDY    66  62  87 SW7       29.90R
WRIGHT-PAT AFB PTCLDY    66  64  92 S6        29.90R
DAYTON GENERAL PTCLDY    65  64  97 S3        29.90R
WILMINGTON     PTCLDY    63  61  93 SW5       29.89S
$$

OHZ036-037-039>041-045>050-054>059-063>069-073>076-082>088-201200-
  CENTRAL AND SOUTHEAST OHIO

CITY           SKY/WX    TMP DP  RH WIND       PRES   REMARKS
COLUMBUS       CLOUDY    71  66  84 S5        29.88R
OSU AIRPORT    CLOUDY    68  65  90 S6        29.87R
BOLTON FIELD   CLOUDY    66  64  91 SW6       29.88S
RICKENBACK AFB CLOUDY    67  62  84 S5        29.86R
NEWARK         CLOUDY    69  66  90 E3        29.88R
MARION         MOCLDY    67  65  93 S5        29.87R FOG
LANCASTER      CLOUDY    68  66  93 SW5       29.89R
ZANESVILLE     RAIN      68  64  87 N6        29.90R
NEW PHILLY     TSTM      66  65  96 VRB3      29.92R
$$


USA.gov is the U.S. government's official web portal to all federal, state and local government web resources and services.